Torna al catalogo

FENGYUN 1C DEB

AttivoPO
NORAD 31480·DEBRIS·🇨🇳 China

Lanciato May 10, 1999 da Taiyuan Satellite Launch Center

Loading…

Prossimi Passaggi (prossime 24 ore)

TLE

AggiornatoSource: Space-Track

Epoca: Sep 13, 2026, 23:37 UTC

1 31480U 99025BVU 26256.98428203  .00004333  00000-0  21260-2 0  9994
2 31480  98.3297  85.7838 0337339 174.8139 185.6665 13.92484922972230

Traccia FENGYUN 1C DEB in tempo reale con AllMySat

Download on the App Store